Escanaba, MI

12:49 PM EDT on June 29, 2017 (GMT -0400)
Delta County

Weather History for KESC - March, 2015

Change the Weather History Date:

Saturday, March 14, 2015

  Actual Average Record
Temperature  
Mean Temperature 38 °F -  
Max Temperature 42 °F 36 °F 49 °F (1964)
Min Temperature 33 °F 19 °F -4 °F (1975)
Degree Days  
Heating Degree Days 28    
Moisture  
Dew Point 29 °F    
Average Humidity 69    
Maximum Humidity 87    
Minimum Humidity 56    
Precipitation  
Precipitation 0.00 in - - ()
Sea Level Pressure  
Sea Level Pressure 29.98 in    
Wind  
Wind Speed 10 mph (NW)    
Max Wind Speed 20 mph    
Max Gust Speed 30 mph    
Visibility 10 miles    
Events      
Averages and records for this station are not official NWS values.
T = Trace of Precipitation, MM = Missing Value Source: NWS Daily Summary

Daily Weather History Graph

Daily Weather History Graph

Search for Another Location

Airport or City:

Trip Planner

Search our weather history database for the weather conditions in past years. The results will help you decide how hot, cold, wet, or windy it might be!

Date:

Astronomy

Mar. 14, 2015 Rise Set
Actual Time 8:03 AM EDT 7:52 PM EDT
Civil Twilight 7:33 AM EDT 8:22 PM EDT
Nautical Twilight 6:59 AM EDT 8:56 PM EDT
Astronomical Twilight 6:24 AM EDT 9:32 PM EDT
Moon 3:44 AM EDT (3/14) 1:27 PM EDT (3/14)
Length of Visible Light 12h 48m
Length of Day
11h 49m
Last Quarter, 40% of the Moon is Illuminated
Mar 14
Last Quarter
Mar 20
New
Mar 27
First Quarter
Apr 4
Full
Apr 11
Last Quarter

Hourly Weather History & Observations

Time (EDT) Temp. Windchill Dew Point Humidity Pressure Visibility Wind Dir Wind Speed Gust Speed Precip Events Conditions
12:15 AM 33.8 °F 29.6 °F 30.2 °F 87% 29.91 in 7.0 mi West 4.6 mph - N/A   Overcast
12:35 AM 33.8 °F 29.6 °F 30.2 °F 87% 29.91 in 8.0 mi WNW 4.6 mph - N/A   Scattered Clouds
12:55 AM 33.8 °F 28.6 °F 30.2 °F 87% 29.91 in 7.0 mi WNW 5.8 mph - N/A   Partly Cloudy
1:15 AM 35.6 °F 30.7 °F 30.2 °F 81% 29.91 in 8.0 mi West 5.8 mph - N/A   Mostly Cloudy
1:35 AM 37.4 °F 32.1 °F 33.8 °F 87% 29.91 in 9.0 mi NW 6.9 mph - N/A   Overcast
1:55 AM 42.8 °F 38.0 °F 35.6 °F 76% 29.90 in 10.0 mi NW 8.1 mph - N/A   Overcast
2:15 AM 42.8 °F 37.5 °F 33.8 °F 70% 29.91 in 10.0 mi NW 9.2 mph 18.4 mph N/A   Overcast
2:35 AM 42.8 °F 37.5 °F 33.8 °F 70% 29.91 in 10.0 mi NW 9.2 mph - N/A   Overcast
2:55 AM 41.0 °F 33.5 °F 33.8 °F 76% 29.91 in 10.0 mi WNW 13.8 mph - N/A   Overcast
3:15 AM 41.0 °F 34.3 °F 32.0 °F 70% 29.91 in 10.0 mi WNW 11.5 mph - N/A   Overcast
3:35 AM 39.2 °F 32.0 °F 32.0 °F 75% 29.91 in 10.0 mi NW 11.5 mph 18.4 mph N/A   Overcast
3:55 AM 39.2 °F 32.0 °F 32.0 °F 75% 29.91 in 10.0 mi NW 11.5 mph - N/A   Overcast
4:15 AM 39.2 °F 32.0 °F 32.0 °F 75% 29.91 in 10.0 mi NW 11.5 mph 17.3 mph N/A   Overcast
4:35 AM 39.2 °F 32.0 °F 32.0 °F 75% 29.90 in 10.0 mi NW 11.5 mph 18.4 mph N/A   Overcast
4:55 AM 39.2 °F 32.0 °F 32.0 °F 75% 29.90 in 10.0 mi NW 11.5 mph 23.0 mph N/A   Overcast
5:15 AM 39.2 °F 31.6 °F 32.0 °F 75% 29.90 in 10.0 mi NW 12.7 mph 23.0 mph N/A   Overcast
5:35 AM 39.2 °F 30.8 °F 32.0 °F 75% 29.90 in 10.0 mi NW 15.0 mph 19.6 mph N/A   Overcast
5:55 AM 39.2 °F 30.8 °F 32.0 °F 75% 29.90 in 10.0 mi WNW 15.0 mph 21.9 mph N/A   Overcast
6:15 AM 39.2 °F 30.5 °F 30.2 °F 70% 29.91 in 10.0 mi NW 16.1 mph 21.9 mph N/A   Overcast
6:35 AM 39.2 °F 32.0 °F 30.2 °F 70% 29.92 in 10.0 mi NW 11.5 mph 18.4 mph N/A   Overcast
6:55 AM 39.2 °F 31.2 °F 30.2 °F 70% 29.92 in 10.0 mi NW 13.8 mph 18.4 mph N/A   Overcast
7:15 AM 39.2 °F 32.0 °F 30.2 °F 70% 29.93 in 10.0 mi NW 11.5 mph 18.4 mph N/A   Overcast
7:35 AM 39.2 °F 30.2 °F 30.2 °F 70% 29.93 in 10.0 mi NW 17.3 mph 24.2 mph N/A   Overcast
7:55 AM 39.2 °F 31.2 °F 30.2 °F 70% 29.93 in 10.0 mi NW 13.8 mph - N/A   Overcast
8:15 AM 39.2 °F 31.6 °F 30.2 °F 70% 29.93 in 10.0 mi NW 12.7 mph - N/A   Overcast
8:35 AM 39.2 °F 33.0 °F 30.2 °F 70% 29.94 in 10.0 mi NW 9.2 mph - N/A   Overcast
8:55 AM 39.2 °F 33.6 °F 30.2 °F 70% 29.94 in 10.0 mi NW 8.1 mph - N/A   Overcast
9:15 AM 39.2 °F 33.0 °F 30.2 °F 70% 29.94 in 10.0 mi NW 9.2 mph 17.3 mph N/A   Overcast
9:35 AM 39.2 °F 33.0 °F 30.2 °F 70% 29.94 in 10.0 mi NW 9.2 mph 19.6 mph N/A   Overcast
9:55 AM 39.2 °F 30.8 °F 28.4 °F 65% 29.94 in 10.0 mi NW 15.0 mph 20.7 mph N/A   Overcast
10:15 AM 39.2 °F 32.0 °F 30.2 °F 70% 29.94 in 10.0 mi NW 11.5 mph 23.0 mph N/A   Overcast
10:35 AM 39.2 °F 31.6 °F 30.2 °F 70% 29.94 in 10.0 mi NW 12.7 mph 21.9 mph N/A   Overcast
10:55 AM 39.2 °F 29.8 °F 30.2 °F 70% 29.95 in 10.0 mi NW 18.4 mph 25.3 mph N/A   Overcast
11:15 AM 39.2 °F 32.0 °F 30.2 °F 70% 29.95 in 10.0 mi NW 11.5 mph 23.0 mph N/A   Overcast
11:35 AM 39.2 °F 31.6 °F 30.2 °F 70% 29.95 in 10.0 mi NW 12.7 mph - N/A   Overcast
11:55 AM 41.0 °F 33.9 °F 30.2 °F 65% 29.95 in 10.0 mi NW 12.7 mph 21.9 mph N/A   Overcast
12:15 PM 39.2 °F 30.5 °F 30.2 °F 70% 29.95 in 10.0 mi NW 16.1 mph 26.5 mph N/A   Overcast
12:35 PM 39.2 °F 30.5 °F 28.4 °F 65% 29.95 in 10.0 mi NW 16.1 mph 25.3 mph N/A   Overcast
12:55 PM 39.2 °F 32.0 °F 28.4 °F 65% 29.96 in 10.0 mi NW 11.5 mph 21.9 mph N/A   Overcast
1:15 PM 41.0 °F 33.9 °F 28.4 °F 61% 29.96 in 10.0 mi NNW 12.7 mph 21.9 mph N/A   Overcast
1:35 PM 37.4 °F 28.9 °F 30.2 °F 75% 29.97 in 5.0 mi NNW 13.8 mph 21.9 mph N/A   Overcast
1:55 PM 37.4 °F 28.9 °F 30.2 °F 75% 29.97 in 10.0 mi NNW 13.8 mph 21.9 mph N/A   Overcast
2:15 PM 37.4 °F 29.8 °F 30.2 °F 75% 29.97 in 10.0 mi NNW 11.5 mph - N/A   Overcast
2:35 PM 39.2 °F 29.8 °F 30.2 °F 70% 29.97 in 10.0 mi NNW 18.4 mph 29.9 mph N/A   Mostly Cloudy
2:55 PM 39.2 °F 30.8 °F 26.6 °F 61% 29.97 in 10.0 mi NW 15.0 mph 25.3 mph N/A   Overcast
3:15 PM 41.0 °F 33.1 °F 26.6 °F 57% 29.97 in 10.0 mi NW 15.0 mph 27.6 mph N/A   Overcast
3:35 PM 39.2 °F 30.5 °F 26.6 °F 61% 29.98 in 10.0 mi NW 16.1 mph 26.5 mph N/A   Overcast
3:55 PM 39.2 °F 33.0 °F 24.8 °F 56% 29.98 in 10.0 mi NNW 9.2 mph 21.9 mph N/A   Overcast
4:15 PM 39.2 °F 30.8 °F 26.6 °F 61% 29.98 in 10.0 mi NNW 15.0 mph 27.6 mph N/A   Overcast
4:35 PM 39.2 °F 29.6 °F 24.8 °F 56% 29.99 in 10.0 mi NNW 19.6 mph 28.8 mph N/A   Overcast
4:55 PM 39.2 °F 32.0 °F 26.6 °F 61% 30.00 in 10.0 mi NW 11.5 mph 23.0 mph N/A   Overcast
5:15 PM 39.2 °F 30.8 °F 26.6 °F 61% 30.01 in 10.0 mi NW 15.0 mph 27.6 mph N/A   Overcast
5:35 PM 39.2 °F 30.5 °F 24.8 °F 56% 30.01 in 10.0 mi NNW 16.1 mph 23.0 mph N/A   Overcast
5:55 PM 39.2 °F 31.2 °F 26.6 °F 61% 30.02 in 10.0 mi NNW 13.8 mph 23.0 mph N/A   Overcast
6:15 PM 39.2 °F 32.5 °F 24.8 °F 56% 30.03 in 10.0 mi NW 10.4 mph 24.2 mph N/A   Overcast
6:35 PM 39.2 °F 33.0 °F 26.6 °F 61% 30.04 in 10.0 mi NNW 9.2 mph 19.6 mph N/A   Overcast
6:55 PM 39.2 °F 32.0 °F 24.8 °F 56% 30.05 in 10.0 mi NNW 11.5 mph 18.4 mph N/A   Overcast
7:15 PM 39.2 °F 33.6 °F 24.8 °F 56% 30.05 in 10.0 mi NNW 8.1 mph 19.6 mph N/A   Overcast
7:35 PM 39.2 °F 33.0 °F 26.6 °F 61% 30.07 in 10.0 mi NNW 9.2 mph - N/A   Overcast
7:55 PM 37.4 °F 32.1 °F 26.6 °F 65% 30.07 in 10.0 mi North 6.9 mph - N/A   Overcast
8:15 PM 37.4 °F 30.8 °F 26.6 °F 65% 30.08 in 10.0 mi North 9.2 mph - N/A   Overcast
8:35 PM 37.4 °F 30.8 °F 26.6 °F 65% 30.09 in 10.0 mi NNW 9.2 mph - N/A   Overcast
8:55 PM 37.4 °F 32.1 °F 26.6 °F 65% 30.10 in 10.0 mi NNW 6.9 mph 17.3 mph N/A   Overcast
9:15 PM 37.4 °F 30.3 °F 26.6 °F 65% 30.11 in 10.0 mi NNW 10.4 mph 18.4 mph N/A   Overcast
9:35 PM 37.4 °F 32.1 °F 26.6 °F 65% 30.11 in 10.0 mi NNW 6.9 mph - N/A   Overcast
9:55 PM 37.4 °F 31.4 °F 26.6 °F 65% 30.12 in 10.0 mi NNW 8.1 mph - N/A   Overcast
10:15 PM 37.4 °F 32.8 °F 26.6 °F 65% 30.14 in 10.0 mi NNW 5.8 mph - N/A   Overcast
10:35 PM 37.4 °F 31.4 °F 26.6 °F 65% 30.15 in 10.0 mi North 8.1 mph - N/A   Overcast
10:55 PM 35.6 °F 29.9 °F 26.6 °F 70% 30.15 in 10.0 mi NNW 6.9 mph - N/A   Overcast
11:15 PM 35.6 °F 29.2 °F 26.6 °F 70% 30.15 in 10.0 mi North 8.1 mph - N/A   Overcast
11:35 PM 35.6 °F 29.2 °F 26.6 °F 70% 30.15 in 10.0 mi NNW 8.1 mph - N/A   Overcast
11:55 PM 35.6 °F 28.6 °F 26.6 °F 70% 30.15 in 10.0 mi North 9.2 mph - N/A   Overcast